| time (UTC) | temp F | wind direction | speed MPH | gust MPH | rain 1hr in | rain 24hr in | rain mn in | humidity % | barometer mb |
| 20260506171007 | 64 | 336 | 3.0 | 11.0 | 0.00 | 0.00 | 0.00 | 85 | 1013.4 |
| 20260506170509 | 65 | 25 | 2.0 | 17.0 | 0.00 | 0.00 | 0.00 | 86 | 1013.4 |
| 20260506170029 | 64 | 288 | 5.0 | 10.0 | 0.00 | 0.00 | 0.00 | 86 | 1012.6 |
| 20260506170027 | 64 | 59 | 6.0 | 13.0 | 0.00 | 0.00 | 0.00 | 86 | 1013.5 |
| 20260506165510 | 64 | 22 | 2.0 | 10.0 | 0.00 | 0.00 | 0.00 | 87 | 1013.4 |
| 20260506165506 | 64 | 338 | 3.0 | 10.0 | 0.00 | 0.00 | 0.00 | 87 | 1012.4 |
| 20260506165007 | 64 | 331 | 3.0 | 11.0 | 0.00 | 0.00 | 0.00 | 88 | 1013.6 |
| 20260506165003 | 64 | 329 | 3.0 | 11.0 | 0.00 | 0.00 | 0.00 | 88 | 1012.8 |
| 20260506164517 | 64 | 16 | 5.0 | 11.0 | 0.00 | 0.00 | 0.00 | 87 | 1013.8 |
| 20260506164514 | 64 | 343 | 4.0 | 11.0 | 0.00 | 0.00 | 0.00 | 87 | 1012.9 |
| 20260506164008 | 64 | 12 | 3.0 | 10.0 | 0.00 | 0.00 | 0.00 | 87 | 1013.9 |
| 20260506164005 | 64 | 319 | 3.0 | 11.0 | 0.00 | 0.00 | 0.00 | 87 | 1013.0 |
| 20260506163507 | 64 | 343 | 2.0 | 17.0 | 0.00 | 0.00 | 0.00 | 87 | 1013.3 |
| 20260506163020 | 65 | 20 | 4.0 | 16.0 | 0.00 | 0.00 | 0.00 | 87 | 1014.1 |
| 20260506163018 | 65 | 338 | 4.0 | 17.0 | 0.00 | 0.00 | 0.00 | 87 | 1013.3 |
| 20260506162508 | 65 | 9 | 4.0 | 16.0 | 0.00 | 0.00 | 0.00 | 87 | 1014.3 |
| 20260506162012 | 66 | 26 | 5.0 | 14.0 | 0.00 | 0.00 | 0.00 | 86 | 1014.2 |
| 20260506162006 | 66 | 292 | 4.0 | 14.0 | 0.00 | 0.00 | 0.00 | 86 | 1013.4 |
| 20260506161522 | 67 | 5 | 2.0 | 12.0 | 0.00 | 0.00 | 0.00 | 86 | 1014.2 |
| 20260506161013 | 68 | 288 | 3.0 | 13.0 | 0.00 | 0.00 | 0.00 | 85 | 1013.9 |
| 20260506161007 | 68 | 5 | 2.0 | 9.0 | 0.00 | 0.00 | 0.00 | 85 | 1013.2 |
| 20260506160513 | 70 | 341 | 3.0 | 15.0 | 0.00 | 0.00 | 0.00 | 82 | 1012.9 |
| 20260506160508 | 70 | 39 | 6.0 | 15.0 | 0.00 | 0.00 | 0.00 | 82 | 1013.8 |
| 20260506160016 | 73 | 317 | 4.0 | 12.0 | 0.00 | 0.00 | 0.00 | 78 | 1012.7 |
| 20260506160008 | 73 | 322 | 3.0 | 15.0 | 0.00 | 0.00 | 0.00 | 78 | 1013.7 |
| 20260506155509 | 77 | 323 | 1.0 | 3.0 | 0.00 | 0.00 | 0.00 | 86 | 1012.4 |
| 20260506155503 | 77 | 360 | 0.0 | 2.0 | 0.00 | 0.00 | 0.00 | 86 | 1013.4 |
| 20260506155011 | 77 | 339 | 0.0 | 2.0 | 0.00 | 0.00 | 0.00 | 86 | 1012.1 |
| 20260506155003 | 77 | 69 | 0.0 | 2.0 | 0.00 | 0.00 | 0.00 | 86 | 1013.1 |
| 20260506154516 | 77 | 44 | 0.0 | 2.0 | 0.00 | 0.00 | 0.00 | 87 | 1011.9 |
| 20260506154513 | 77 | 63 | 0.0 | 2.0 | 0.00 | 0.00 | 0.00 | 87 | 1012.8 |
| 20260506154008 | 77 | 44 | 0.0 | 2.0 | 0.00 | 0.00 | 0.00 | 86 | 1011.9 |
| 20260506153509 | 77 | 43 | 0.0 | 2.0 | 0.00 | 0.00 | 0.00 | 87 | 1012.7 |
| 20260506153506 | 77 | 327 | 0.0 | 3.0 | 0.00 | 0.00 | 0.00 | 87 | 1011.8 |
| 20260506153016 | 77 | 327 | 1.0 | 3.0 | 0.00 | 0.00 | 0.00 | 86 | 1011.4 |
| 20260506153011 | 77 | 10 | 1.0 | 2.0 | 0.00 | 0.00 | 0.00 | 86 | 1012.2 |
| 20260506152508 | 76 | 12 | 0.0 | 2.0 | 0.00 | 0.00 | 0.00 | 87 | 1012.2 |
| 20260506152506 | 76 | 56 | 0.0 | 2.0 | 0.00 | 0.00 | 0.00 | 87 | 1011.4 |
| 20260506152010 | 76 | 169 | 1.0 | 2.0 | 0.00 | 0.00 | 0.00 | 87 | 1012.3 |
| 20260506152007 | 76 | 352 | 1.0 | 3.0 | 0.00 | 0.00 | 0.00 | 87 | 1011.4 |
| 20260506151523 | 76 | 332 | 0.0 | 3.0 | 0.00 | 0.00 | 0.00 | 88 | 1011.4 |
| 20260506151508 | 76 | 18 | 0.0 | 2.0 | 0.00 | 0.00 | 0.00 | 88 | 1012.3 |
| 20260506151010 | 76 | 5 | 1.0 | 2.0 | 0.00 | 0.00 | 0.00 | 87 | 1012.2 |
| 20260506151005 | 76 | 329 | 1.0 | 2.0 | 0.00 | 0.00 | 0.00 | 87 | 1011.3 |
| 20260506150511 | 76 | 132 | 0.0 | 3.0 | 0.00 | 0.00 | 0.00 | 87 | 1012.0 |
| 20260506150507 | 76 | 44 | 0.0 | 2.0 | 0.00 | 0.00 | 0.00 | 87 | 1011.1 |
| 20260506150031 | 76 | 150 | 0.0 | 3.0 | 0.00 | 0.00 | 0.00 | 87 | 1011.9 |
| 20260506150006 | 76 | 27 | 0.0 | 3.0 | 0.00 | 0.00 | 0.00 | 87 | 1011.1 |
| 20260506145504 | 76 | 97 | 1.0 | 3.0 | 0.00 | 0.00 | 0.00 | 87 | 1011.0 |
| 20260506145005 | 76 | 114 | 1.0 | 3.0 | 0.00 | 0.00 | 0.00 | 87 | 1011.6 |
| 20260506145003 | 76 | 114 | 1.0 | 4.0 | 0.00 | 0.00 | 0.00 | 87 | 1010.8 |
| 20260506144512 | 76 | 108 | 1.0 | 3.0 | 0.00 | 0.00 | 0.00 | 88 | 1011.4 |
| 20260506144502 | 76 | 56 | 2.0 | 4.0 | 0.00 | 0.00 | 0.00 | 88 | 1010.7 |
| 20260506144005 | 76 | 92 | 0.0 | 3.0 | 0.00 | 0.00 | 0.00 | 89 | 1011.3 |
| 20260506144002 | 76 | 88 | 0.0 | 2.0 | 0.00 | 0.00 | 0.00 | 89 | 1010.6 |
| 20260506143506 | 75 | 100 | 1.0 | 2.0 | 0.00 | 0.00 | 0.00 | 90 | 1010.7 |
| 20260506143034 | 75 | 152 | 0.0 | 2.0 | 0.00 | 0.00 | 0.00 | 90 | 1011.5 |
| 20260506143005 | 75 | 151 | 0.0 | 2.0 | 0.00 | 0.00 | 0.00 | 90 | 1010.7 |
| 20260506142509 | 75 | 77 | 0.0 | 2.0 | 0.00 | 0.00 | 0.00 | 90 | 1011.8 |
| 20260506142503 | 75 | 151 | 0.0 | 2.0 | 0.00 | 0.00 | 0.00 | 90 | 1010.9 |
| 20260506142004 | 75 | 77 | 0.0 | 2.0 | 0.00 | 0.00 | 0.00 | 90 | 1011.7 |
| 20260506142002 | 75 | 151 | 0.0 | 2.0 | 0.00 | 0.00 | 0.00 | 90 | 1010.9 |
| 20260506141523 | 75 | 151 | 0.0 | 2.0 | 0.00 | 0.00 | 0.00 | 89 | 1010.9 |
| 20260506141520 | 75 | 77 | 0.0 | 2.0 | 0.00 | 0.00 | 0.00 | 89 | 1011.9 |
| 20260506141008 | 75 | 120 | 0.0 | 2.0 | 0.00 | 0.00 | 0.00 | 89 | 1011.7 |
| 20260506141006 | 75 | 151 | 0.0 | 2.0 | 0.00 | 0.00 | 0.00 | 89 | 1010.8 |
| 20260506140505 | 75 | 132 | 0.0 | 2.0 | 0.00 | 0.00 | 0.00 | 90 | 1011.3 |
| 20260506140014 | 75 | 132 | 0.0 | 2.0 | 0.00 | 0.00 | 0.00 | 90 | 1010.9 |
| 20260506140003 | 75 | 131 | 0.0 | 2.0 | 0.00 | 0.00 | 0.00 | 90 | 1010.2 |
| 20260506135507 | 75 | 92 | 0.0 | 3.0 | 0.00 | 0.00 | 0.00 | 89 | 1010.8 |
| 20260506135503 | 75 | 86 | 0.0 | 3.0 | 0.00 | 0.00 | 0.00 | 89 | 1010.2 |
| 20260506135008 | 75 | 116 | 0.0 | 3.0 | 0.00 | 0.00 | 0.00 | 89 | 1010.7 |
| 20260506135005 | 75 | 86 | 1.0 | 3.0 | 0.00 | 0.00 | 0.00 | 89 | 1010.1 |
| 20260506134508 | 75 | 107 | 1.0 | 2.0 | 0.00 | 0.00 | 0.00 | 89 | 1010.7 |
| 20260506134003 | 75 | 127 | 0.0 | 2.0 | 0.00 | 0.00 | 0.00 | 89 | 1010.8 |
| 20260506133506 | 75 | 121 | 1.0 | 3.0 | 0.00 | 0.00 | 0.00 | 89 | 1010.7 |
| 20260506133503 | 75 | 91 | 0.0 | 3.0 | 0.00 | 0.00 | 0.00 | 89 | 1010.0 |
| 20260506133009 | 75 | 143 | 1.0 | 3.0 | 0.00 | 0.00 | 0.00 | 89 | 1010.7 |
| 20260506133007 | 75 | 91 | 0.0 | 2.0 | 0.00 | 0.00 | 0.00 | 89 | 1010.0 |
| 20260506132511 | 75 | 130 | 0.0 | 2.0 | 0.00 | 0.00 | 0.00 | 90 | 1010.7 |
| 20260506132504 | 75 | 78 | 0.0 | 2.0 | 0.00 | 0.00 | 0.00 | 90 | 1010.0 |
| 20260506132009 | 75 | 74 | 0.0 | 2.0 | 0.00 | 0.00 | 0.00 | 90 | 1010.8 |
| 20260506132006 | 75 | 78 | 0.0 | 2.0 | 0.00 | 0.00 | 0.00 | 90 | 1010.0 |
| 20260506131522 | 75 | 108 | 0.0 | 2.0 | 0.00 | 0.00 | 0.00 | 90 | 1010.8 |
| 20260506131507 | 75 | 78 | 0.0 | 2.0 | 0.00 | 0.00 | 0.00 | 90 | 1010.0 |
| 20260506131004 | 74 | 78 | 0.0 | 2.0 | 0.00 | 0.00 | 0.00 | 90 | 1010.0 |
| 20260506130510 | 74 | 82 | 0.0 | 2.0 | 0.00 | 0.00 | 0.00 | 90 | 1010.8 |
| 20260506130506 | 74 | 59 | 0.0 | 2.0 | 0.00 | 0.00 | 0.00 | 90 | 1009.9 |
| 20260506130025 | 74 | 100 | 0.0 | 2.0 | 0.00 | 0.00 | 0.00 | 91 | 1010.8 |
| 20260506130004 | 74 | 144 | 0.0 | 2.0 | 0.00 | 0.00 | 0.00 | 91 | 1010.0 |
| 20260506125504 | 74 | 161 | 0.0 | 2.0 | 0.00 | 0.00 | 0.00 | 91 | 1009.9 |
| 20260506125006 | 74 | 109 | 0.0 | 2.0 | 0.00 | 0.00 | 0.00 | 91 | 1010.7 |
| 20260506125003 | 74 | 161 | 0.0 | 2.0 | 0.00 | 0.00 | 0.00 | 91 | 1009.9 |
| 20260506124520 | 74 | 140 | 0.0 | 2.0 | 0.00 | 0.00 | 0.00 | 91 | 1010.8 |
| 20260506124507 | 74 | 161 | 0.0 | 2.0 | 0.00 | 0.00 | 0.00 | 91 | 1010.0 |
| 20260506124008 | 74 | 140 | 0.0 | 2.0 | 0.00 | 0.00 | 0.00 | 91 | 1010.8 |
| 20260506124003 | 74 | 161 | 0.0 | 2.0 | 0.00 | 0.00 | 0.00 | 91 | 1010.0 |
| 20260506123505 | 74 | 161 | 0.0 | 2.0 | 0.00 | 0.00 | 0.00 | 91 | 1009.9 |
| 20260506123014 | 74 | 161 | 0.0 | 2.0 | 0.00 | 0.00 | 0.00 | 91 | 1009.9 |
| 20260506123010 | 74 | 140 | 0.0 | 2.0 | 0.00 | 0.00 | 0.00 | 91 | 1010.7 |
| 20260506122504 | 74 | 173 | 0.0 | 2.0 | 0.00 | 0.00 | 0.00 | 92 | 1010.6 |
| 20260506122006 | 74 | 215 | 0.0 | 2.0 | 0.00 | 0.00 | 0.00 | 91 | 1010.5 |
| 20260506122003 | 74 | 147 | 1.0 | 2.0 | 0.00 | 0.00 | 0.00 | 91 | 1009.7 |
| 20260506121520 | 74 | 171 | 0.0 | 2.0 | 0.00 | 0.00 | 0.00 | 92 | 1009.8 |
| 20260506121515 | 74 | 215 | 0.0 | 2.0 | 0.00 | 0.00 | 0.00 | 92 | 1010.5 |
| 20260506121007 | 74 | 171 | 0.0 | 2.0 | 0.00 | 0.00 | 0.00 | 91 | 1009.7 |
| 20260506121005 | 74 | 215 | 0.0 | 0.0 | 0.00 | 0.00 | 0.00 | 91 | 1010.4 |
| 20260506120510 | 73 | 215 | 0.0 | 0.0 | 0.00 | 0.00 | 0.00 | 91 | 1010.4 |
| 20260506120503 | 73 | 171 | 0.0 | 0.0 | 0.00 | 0.00 | 0.00 | 91 | 1009.8 |
| 20260506120022 | 73 | 171 | 0.0 | 0.0 | 0.00 | 0.00 | 0.00 | 91 | 1009.7 |
| 20260506120013 | 73 | 215 | 0.0 | 0.0 | 0.00 | 0.00 | 0.00 | 91 | 1010.4 |
| 20260506115509 | 73 | 171 | 0.0 | 0.0 | 0.00 | 0.00 | 0.00 | 91 | 1009.8 |
| 20260506115506 | 73 | 215 | 0.0 | 0.0 | 0.00 | 0.00 | 0.00 | 91 | 1010.4 |
| 20260506115010 | 73 | 215 | 0.0 | 0.0 | 0.00 | 0.00 | 0.00 | 91 | 1010.4 |
| 20260506115003 | 73 | 171 | 0.0 | 0.0 | 0.00 | 0.00 | 0.00 | 91 | 1009.7 |
| 20260506114512 | 74 | 215 | 0.0 | 0.0 | 0.00 | 0.00 | 0.00 | 91 | 1010.3 |
| 20260506114505 | 74 | 171 | 0.0 | 0.0 | 0.00 | 0.00 | 0.00 | 91 | 1009.7 |
| 20260506114006 | 74 | 215 | 0.0 | 0.0 | 0.00 | 0.00 | 0.00 | 91 | 1010.2 |
| 20260506114004 | 74 | 171 | 0.0 | 2.0 | 0.00 | 0.00 | 0.00 | 91 | 1009.7 |
| 20260506113509 | 74 | 215 | 0.0 | 0.0 | 0.00 | 0.00 | 0.00 | 91 | 1010.3 |
| 20260506113502 | 74 | 171 | 0.0 | 2.0 | 0.00 | 0.00 | 0.00 | 91 | 1009.7 |
| 20260506113024 | 74 | 215 | 0.0 | 0.0 | 0.00 | 0.00 | 0.00 | 91 | 1010.3 |
| 20260506113008 | 74 | 171 | 0.0 | 2.0 | 0.00 | 0.00 | 0.00 | 91 | 1009.8 |
| 20260506112504 | 74 | 171 | 0.0 | 1.0 | 0.00 | 0.00 | 0.00 | 91 | 1009.7 |
| 20260506112502 | 74 | 215 | 0.0 | 0.0 | 0.00 | 0.00 | 0.00 | 91 | 1010.3 |
| 20260506112007 | 74 | 171 | 0.0 | 2.0 | 0.00 | 0.00 | 0.00 | 90 | 1009.6 |
| 20260506112004 | 74 | 215 | 0.0 | 2.0 | 0.00 | 0.00 | 0.00 | 90 | 1010.3 |
| 20260506111515 | 74 | 215 | 0.0 | 2.0 | 0.00 | 0.00 | 0.00 | 90 | 1010.2 |
| 20260506111006 | 74 | 215 | 0.0 | 2.0 | 0.00 | 0.00 | 0.00 | 89 | 1010.2 |
| 20260506111004 | 74 | 171 | 0.0 | 3.0 | 0.00 | 0.00 | 0.00 | 89 | 1009.6 |
| 20260506110506 | 74 | 209 | 0.0 | 2.0 | 0.00 | 0.00 | 0.00 | 90 | 1010.2 |
| 20260506110504 | 74 | 159 | 1.0 | 3.0 | 0.00 | 0.00 | 0.00 | 90 | 1009.5 |
| 20260506110022 | 74 | 209 | 0.0 | 2.0 | 0.00 | 0.00 | 0.00 | 89 | 1010.2 |
| 20260506110020 | 74 | 170 | 1.0 | 3.0 | 0.00 | 0.00 | 0.00 | 89 | 1009.6 |
| 20260506105508 | 74 | 209 | 0.0 | 2.0 | 0.00 | 0.00 | 0.00 | 89 | 1010.1 |
| 20260506105504 | 74 | 168 | 0.0 | 3.0 | 0.00 | 0.00 | 0.00 | 89 | 1009.4 |
| 20260506105008 | 74 | 209 | 0.0 | 2.0 | 0.00 | 0.00 | 0.00 | 89 | 1010.0 |
| 20260506105003 | 74 | 168 | 0.0 | 3.0 | 0.00 | 0.00 | 0.00 | 89 | 1009.4 |
| 20260506104519 | 74 | 202 | 0.0 | 5.0 | 0.00 | 0.00 | 0.00 | 89 | 1009.4 |
| 20260506104010 | 74 | 172 | 1.0 | 5.0 | 0.00 | 0.00 | 0.00 | 89 | 1009.2 |
| 20260506104007 | 74 | 209 | 0.0 | 2.0 | 0.00 | 0.00 | 0.00 | 89 | 1009.9 |
| 20260506103508 | 74 | 208 | 0.0 | 2.0 | 0.00 | 0.00 | 0.00 | 89 | 1009.9 |
| 20260506103503 | 74 | 192 | 1.0 | 4.0 | 0.00 | 0.00 | 0.00 | 89 | 1009.2 |
| 20260506103018 | 74 | 207 | 0.0 | 2.0 | 0.00 | 0.00 | 0.00 | 89 | 1009.9 |
| 20260506103008 | 74 | 180 | 2.0 | 6.0 | 0.00 | 0.00 | 0.00 | 89 | 1009.3 |
| 20260506102510 | 74 | 159 | 0.0 | 2.0 | 0.00 | 0.00 | 0.00 | 89 | 1009.9 |
| 20260506102503 | 74 | 209 | 2.0 | 5.0 | 0.00 | 0.00 | 0.00 | 89 | 1009.2 |
| 20260506102011 | 74 | 248 | 0.0 | 2.0 | 0.00 | 0.00 | 0.00 | 89 | 1009.8 |
| 20260506102004 | 74 | 202 | 2.0 | 5.0 | 0.00 | 0.00 | 0.00 | 89 | 1009.1 |
| 20260506101518 | 74 | 166 | 0.0 | 2.0 | 0.00 | 0.00 | 0.00 | 89 | 1009.8 |
| 20260506101512 | 74 | 138 | 3.0 | 4.0 | 0.00 | 0.00 | 0.00 | 89 | 1009.2 |
| 20260506101006 | 74 | 207 | 0.0 | 2.0 | 0.00 | 0.00 | 0.00 | 89 | 1009.8 |
| 20260506100508 | 74 | 196 | 2.0 | 5.0 | 0.00 | 0.00 | 0.00 | 89 | 1009.0 |
| 20260506100504 | 74 | 226 | 0.0 | 2.0 | 0.00 | 0.00 | 0.00 | 89 | 1009.7 |
| 20260506100017 | 74 | 182 | 0.0 | 2.0 | 0.00 | 0.00 | 0.00 | 89 | 1009.5 |
| 20260506100012 | 74 | 165 | 3.0 | 5.0 | 0.00 | 0.00 | 0.00 | 89 | 1008.9 |
| 20260506095506 | 74 | 242 | 0.0 | 2.0 | 0.00 | 0.00 | 0.00 | 89 | 1009.5 |
| 20260506095008 | 74 | 215 | 0.0 | 3.0 | 0.00 | 0.00 | 0.00 | 89 | 1009.5 |
| 20260506095006 | 74 | 210 | 2.0 | 8.0 | 0.00 | 0.00 | 0.00 | 89 | 1008.8 |
| 20260506094521 | 74 | 161 | 0.0 | 3.0 | 0.00 | 0.00 | 0.00 | 88 | 1009.4 |
| 20260506094507 | 74 | 153 | 3.0 | 8.0 | 0.00 | 0.00 | 0.00 | 88 | 1008.8 |
| 20260506094005 | 75 | 224 | 1.0 | 4.0 | 0.00 | 0.00 | 0.00 | 88 | 1009.3 |
| 20260506093507 | 74 | 163 | 0.0 | 4.0 | 0.00 | 0.00 | 0.00 | 89 | 1009.3 |
| 20260506093505 | 74 | 143 | 3.0 | 8.0 | 0.00 | 0.00 | 0.00 | 89 | 1008.6 |
| 20260506093033 | 74 | 157 | 2.0 | 6.0 | 0.00 | 0.00 | 0.00 | 89 | 1008.5 |
| 20260506093023 | 74 | 236 | 0.0 | 3.0 | 0.00 | 0.00 | 0.00 | 89 | 1009.1 |
| 20260506092508 | 74 | 246 | 1.0 | 3.0 | 0.00 | 0.00 | 0.00 | 89 | 1009.0 |
| 20260506092503 | 74 | 234 | 4.0 | 7.0 | 0.00 | 0.00 | 0.00 | 89 | 1008.4 |
| 20260506092007 | 74 | 198 | 1.0 | 4.0 | 0.00 | 0.00 | 0.00 | 89 | 1009.0 |
| 20260506092004 | 74 | 167 | 5.0 | 9.0 | 0.00 | 0.00 | 0.00 | 89 | 1008.4 |
| 20260506091525 | 74 | 209 | 0.0 | 4.0 | 0.00 | 0.00 | 0.00 | 89 | 1009.1 |
| 20260506091512 | 74 | 184 | 5.0 | 10.0 | 0.00 | 0.00 | 0.00 | 89 | 1008.5 |
| 20260506091010 | 74 | 222 | 0.0 | 2.0 | 0.00 | 0.00 | 0.00 | 89 | 1009.0 |
| 20260506091003 | 74 | 163 | 4.0 | 10.0 | 0.00 | 0.00 | 0.00 | 89 | 1008.3 |
| 20260506090507 | 74 | 201 | 5.0 | 10.0 | 0.00 | 0.00 | 0.00 | 89 | 1008.5 |
| 20260506090022 | 74 | 136 | 4.0 | 8.0 | 0.00 | 0.00 | 0.00 | 89 | 1008.5 |
| 20260506090014 | 74 | 160 | 1.0 | 3.0 | 0.00 | 0.00 | 0.00 | 89 | 1009.1 |
| 20260506085506 | 74 | 140 | 5.0 | 9.0 | 0.00 | 0.00 | 0.00 | 89 | 1008.4 |
| 20260506085011 | 74 | 186 | 1.0 | 2.0 | 0.00 | 0.00 | 0.00 | 89 | 1009.1 |
| 20260506085003 | 74 | 145 | 3.0 | 9.0 | 0.00 | 0.00 | 0.00 | 89 | 1008.4 |
| 20260506084531 | 74 | 173 | 4.0 | 12.0 | 0.00 | 0.00 | 0.00 | 89 | 1008.3 |
| 20260506084520 | 74 | 304 | 1.0 | 3.0 | 0.00 | 0.00 | 0.00 | 89 | 1009.1 |
| 20260506084008 | 74 | 165 | 4.0 | 11.0 | 0.00 | 0.00 | 0.00 | 89 | 1008.4 |
| 20260506083506 | 74 | 190 | 1.0 | 4.0 | 0.00 | 0.00 | 0.00 | 89 | 1009.0 |
| 20260506083504 | 74 | 143 | 6.0 | 11.0 | 0.00 | 0.00 | 0.00 | 89 | 1008.5 |
| 20260506083015 | 74 | 180 | 1.0 | 4.0 | 0.00 | 0.00 | 0.00 | 89 | 1009.0 |
| 20260506083013 | 74 | 174 | 4.0 | 12.0 | 0.00 | 0.00 | 0.00 | 89 | 1008.4 |
| 20260506082507 | 74 | 184 | 0.0 | 5.0 | 0.00 | 0.00 | 0.00 | 89 | 1009.0 |
| 20260506082013 | 74 | 71 | 4.0 | 12.0 | 0.00 | 0.00 | 0.00 | 89 | 1008.3 |
| 20260506081527 | 74 | 161 | 1.0 | 4.0 | 0.00 | 0.00 | 0.00 | 89 | 1008.9 |
| 20260506081512 | 74 | 178 | 3.0 | 9.0 | 0.00 | 0.00 | 0.00 | 89 | 1008.2 |
| 20260506081011 | 74 | 183 | 1.0 | 5.0 | 0.00 | 0.00 | 0.00 | 89 | 1008.9 |
| 20260506081004 | 74 | 235 | 4.0 | 12.0 | 0.00 | 0.00 | 0.00 | 89 | 1008.2 |
| 20260506080507 | 74 | 193 | 0.0 | 5.0 | 0.00 | 0.00 | 0.00 | 89 | 1009.0 |
| 20260506080503 | 74 | 254 | 4.0 | 14.0 | 0.00 | 0.00 | 0.00 | 89 | 1008.4 |
| 20260506073508 | 74 | 261 | 1.0 | 3.0 | 0.00 | 0.00 | 0.00 | 89 | 1009.3 |
| 20260506073024 | 74 | 178 | 6.0 | 11.0 | 0.00 | 0.00 | 0.00 | 89 | 1008.6 |
| 20260506072517 | 74 | 196 | 0.0 | 3.0 | 0.00 | 0.00 | 0.00 | 89 | 1009.3 |
| 20260506072512 | 74 | 200 | 6.0 | 12.0 | 0.00 | 0.00 | 0.00 | 89 | 1008.7 |
| 20260506072008 | 74 | 186 | 1.0 | 4.0 | 0.00 | 0.00 | 0.00 | 89 | 1009.3 |
| 20260506072003 | 74 | 157 | 6.0 | 12.0 | 0.00 | 0.00 | 0.00 | 89 | 1008.7 |
| 20260506071522 | 74 | 153 | 1.0 | 5.0 | 0.00 | 0.00 | 0.00 | 89 | 1009.4 |
| 20260506071520 | 74 | 155 | 5.0 | 12.0 | 0.00 | 0.00 | 0.00 | 89 | 1008.8 |
| 20260506071011 | 74 | 160 | 1.0 | 5.0 | 0.00 | 0.00 | 0.00 | 89 | 1009.4 |
| 20260506070508 | 74 | 150 | 1.0 | 4.0 | 0.00 | 0.00 | 0.00 | 89 | 1009.4 |
| 20260506070504 | 74 | 161 | 5.0 | 8.0 | 0.00 | 0.00 | 0.00 | 89 | 1008.8 |
| 20260506062511 | 74 | 136 | 1.0 | 4.0 | 0.00 | 0.00 | 0.00 | 89 | 1009.5 |
| 20260506062507 | 74 | 140 | 3.0 | 7.0 | 0.00 | 0.00 | 0.00 | 89 | 1008.9 |
| 20260506062011 | 74 | 160 | 3.0 | 7.0 | 0.00 | 0.00 | 0.00 | 89 | 1008.9 |
| 20260506062009 | 74 | 182 | 1.0 | 4.0 | 0.00 | 0.00 | 0.00 | 89 | 1009.5 |
| 20260506061529 | 74 | 220 | 3.0 | 8.0 | 0.00 | 0.00 | 0.00 | 89 | 1008.9 |
| 20260506061508 | 74 | 194 | 1.0 | 3.0 | 0.00 | 0.00 | 0.00 | 89 | 1009.6 |
| 20260506061010 | 74 | 158 | 3.0 | 8.0 | 0.00 | 0.00 | 0.00 | 89 | 1008.9 |
| 20260506061008 | 74 | 223 | 1.0 | 4.0 | 0.00 | 0.00 | 0.00 | 89 | 1009.5 |
| 20260506060508 | 74 | 155 | 3.0 | 8.0 | 0.00 | 0.00 | 0.00 | 89 | 1008.9 |
| 20260506051012 | 74 | 174 | 1.0 | 4.0 | 0.00 | 0.00 | 0.00 | 88 | 1009.7 |
| 20260506051007 | 74 | 158 | 4.0 | 11.0 | 0.00 | 0.00 | 0.00 | 88 | 1009.1 |
| 20260506050509 | 74 | 162 | 3.0 | 10.0 | 0.00 | 0.00 | 0.00 | 88 | 1008.9 |
| 20260506050506 | 74 | 181 | 1.0 | 4.0 | 0.00 | 0.00 | 0.00 | 88 | 1009.7 |
| 20260506045011 | 74 | 209 | 4.0 | 9.0 | 0.00 | 0.00 | 0.00 | 88 | 1009.0 |
| 20260506045005 | 74 | 217 | 0.0 | 5.0 | 0.00 | 0.00 | 0.00 | 88 | 1009.6 |
| 20260506044538 | 74 | 190 | 5.0 | 9.0 | 0.00 | 0.00 | 0.00 | 88 | 1009.0 |
| 20260506044512 | 74 | 165 | 1.0 | 5.0 | 0.00 | 0.00 | 0.00 | 88 | 1009.6 |
| 20260506044008 | 74 | 90 | 3.0 | 11.0 | 0.00 | 0.00 | 0.00 | 88 | 1008.9 |
| 20260506044004 | 74 | 176 | 1.0 | 5.0 | 0.00 | 0.00 | 0.00 | 88 | 1009.5 |
| 20260506043507 | 74 | 155 | 6.0 | 11.0 | 0.00 | 0.00 | 0.00 | 88 | 1008.9 |
| 20260506043504 | 74 | 211 | 0.0 | 4.0 | 0.00 | 0.00 | 0.00 | 88 | 1009.5 |
| 20260506043021 | 74 | 159 | 2.0 | 7.0 | 0.00 | 0.00 | 0.00 | 88 | 1008.8 |
| 20260506043012 | 74 | 202 | 0.0 | 5.0 | 0.00 | 0.00 | 0.00 | 88 | 1009.4 |
| 20260506042508 | 74 | 220 | 0.0 | 5.0 | 0.00 | 0.00 | 0.00 | 87 | 1009.5 |
| 20260506042504 | 74 | 153 | 3.0 | 8.0 | 0.00 | 0.00 | 0.00 | 87 | 1008.8 |
| 20260506042019 | 74 | 197 | 1.0 | 4.0 | 0.00 | 0.00 | 0.00 | 88 | 1009.5 |
| 20260506042009 | 74 | 146 | 3.0 | 8.0 | 0.00 | 0.00 | 0.00 | 88 | 1008.8 |
| 20260506041532 | 74 | 140 | 2.0 | 10.0 | 0.00 | 0.00 | 0.00 | 88 | 1008.7 |
| 20260506041530 | 74 | 194 | 1.0 | 5.0 | 0.00 | 0.00 | 0.00 | 88 | 1009.3 |
| 20260506041008 | 74 | 146 | 4.0 | 9.0 | 0.00 | 0.00 | 0.00 | 88 | 1008.7 |
| 20260506040510 | 74 | 159 | 0.0 | 4.0 | 0.00 | 0.00 | 0.00 | 87 | 1009.4 |
| 20260506040507 | 74 | 220 | 3.0 | 8.0 | 0.00 | 0.00 | 0.00 | 87 | 1008.7 |
| 20260506040033 | 74 | 150 | 2.0 | 6.0 | 0.00 | 0.00 | 0.00 | 87 | 1008.7 |
| 20260506040027 | 74 | 166 | 0.0 | 4.0 | 0.00 | 0.00 | 0.00 | 87 | 1009.4 |
| 20260506035509 | 75 | 151 | 2.0 | 5.0 | 0.00 | 0.00 | 0.00 | 87 | 1008.8 |
| 20260506035504 | 75 | 212 | 1.0 | 4.0 | 0.00 | 0.00 | 0.00 | 87 | 1009.4 |
| 20260506035006 | 75 | 154 | 1.0 | 4.0 | 0.00 | 0.00 | 0.00 | 87 | 1008.7 |
| 20260506035004 | 75 | 202 | 1.0 | 3.0 | 0.00 | 0.00 | 0.00 | 87 | 1009.4 |
| 20260506034531 | 75 | 149 | 1.0 | 6.0 | 0.00 | 0.00 | 0.00 | 86 | 1008.6 |
| 20260506034523 | 75 | 189 | 1.0 | 3.0 | 0.00 | 0.00 | 0.00 | 86 | 1009.2 |
| 20260506034008 | 75 | 136 | 2.0 | 6.0 | 0.00 | 0.00 | 0.00 | 86 | 1008.5 |
| 20260506034004 | 75 | 238 | 0.0 | 2.0 | 0.00 | 0.00 | 0.00 | 86 | 1009.2 |
| 20260506033512 | 75 | 173 | 2.0 | 9.0 | 0.00 | 0.00 | 0.00 | 85 | 1008.3 |
| 20260506033504 | 75 | 150 | 0.0 | 3.0 | 0.00 | 0.00 | 0.00 | 85 | 1009.0 |
| 20260506033020 | 75 | 140 | 3.0 | 9.0 | 0.00 | 0.00 | 0.00 | 85 | 1008.1 |
| 20260506033014 | 75 | 201 | 1.0 | 4.0 | 0.00 | 0.00 | 0.00 | 85 | 1008.8 |
| 20260506032513 | 75 | 213 | 0.0 | 4.0 | 0.00 | 0.00 | 0.00 | 85 | 1008.7 |
| 20260506032507 | 75 | 155 | 3.0 | 9.0 | 0.00 | 0.00 | 0.00 | 85 | 1008.1 |
| 20260506032009 | 75 | 160 | 4.0 | 9.0 | 0.00 | 0.00 | 0.00 | 85 | 1008.2 |
| 20260506031523 | 75 | 230 | 1.0 | 4.0 | 0.00 | 0.00 | 0.00 | 85 | 1008.6 |
| 20260506031520 | 75 | 178 | 4.0 | 9.0 | 0.00 | 0.00 | 0.00 | 85 | 1008.2 |
| 20260506031008 | 76 | 171 | 4.0 | 11.0 | 0.00 | 0.00 | 0.00 | 84 | 1008.1 |
| 20260506030508 | 76 | 163 | 1.0 | 4.0 | 0.00 | 0.00 | 0.00 | 84 | 1008.7 |
| 20260506030015 | 76 | 148 | 1.0 | 5.0 | 0.00 | 0.00 | 0.00 | 84 | 1008.4 |
| 20260506030004 | 76 | 133 | 3.0 | 11.0 | 0.00 | 0.00 | 0.00 | 84 | 1007.9 |
| 20260506025506 | 76 | 184 | 1.0 | 5.0 | 0.00 | 0.00 | 0.00 | 84 | 1008.4 |
| 20260506025010 | 76 | 146 | 1.0 | 5.0 | 0.00 | 0.00 | 0.00 | 84 | 1008.5 |
| 20260506025004 | 76 | 183 | 4.0 | 8.0 | 0.00 | 0.00 | 0.00 | 84 | 1007.8 |
| 20260506024530 | 76 | 175 | 1.0 | 4.0 | 0.00 | 0.00 | 0.00 | 84 | 1008.5 |
| 20260506024515 | 76 | 150 | 2.0 | 7.0 | 0.00 | 0.00 | 0.00 | 84 | 1007.6 |
| 20260506024006 | 76 | 190 | 1.0 | 4.0 | 0.00 | 0.00 | 0.00 | 84 | 1008.2 |
| 20260506024002 | 76 | 167 | 2.0 | 7.0 | 0.00 | 0.00 | 0.00 | 84 | 1007.6 |
| 20260506023508 | 76 | 124 | 1.0 | 5.0 | 0.00 | 0.00 | 0.00 | 85 | 1008.1 |
| 20260506023502 | 76 | 177 | 3.0 | 7.0 | 0.00 | 0.00 | 0.00 | 85 | 1007.6 |
| 20260506023016 | 76 | 134 | 2.0 | 5.0 | 0.00 | 0.00 | 0.00 | 84 | 1007.5 |
| 20260506023012 | 76 | 151 | 1.0 | 4.0 | 0.00 | 0.00 | 0.00 | 84 | 1008.1 |
| 20260506022508 | 76 | 132 | 0.0 | 3.0 | 0.00 | 0.00 | 0.00 | 84 | 1007.4 |
| 20260506022505 | 76 | 157 | 0.0 | 2.0 | 0.00 | 0.00 | 0.00 | 84 | 1008.1 |
| 20260506022007 | 76 | 162 | 0.0 | 2.0 | 0.00 | 0.00 | 0.00 | 83 | 1007.9 |
| 20260506021518 | 77 | 169 | 0.0 | 3.0 | 0.00 | 0.00 | 0.00 | 83 | 1007.8 |
| 20260506021507 | 77 | 149 | 1.0 | 7.0 | 0.00 | 0.00 | 0.00 | 83 | 1007.2 |
| 20260506021009 | 77 | 154 | 2.0 | 7.0 | 0.00 | 0.00 | 0.00 | 82 | 1007.2 |
| 20260506020512 | 77 | 186 | 2.0 | 4.0 | 0.00 | 0.00 | 0.00 | 83 | 1007.9 |
| 20260506020510 | 77 | 140 | 2.0 | 9.0 | 0.00 | 0.00 | 0.00 | 83 | 1007.1 |
| 20260506020025 | 77 | 157 | 1.0 | 2.0 | 0.00 | 0.00 | 0.00 | 83 | 1007.8 |
| 20260506020003 | 77 | 145 | 2.0 | 9.0 | 0.00 | 0.00 | 0.00 | 83 | 1007.1 |
| 20260506015508 | 77 | 198 | 0.0 | 2.0 | 0.00 | 0.00 | 0.00 | 83 | 1007.8 |
| 20260506015503 | 77 | 159 | 2.0 | 5.0 | 0.00 | 0.00 | 0.00 | 83 | 1007.1 |
| 20260506015007 | 77 | 175 | 0.0 | 2.0 | 0.00 | 0.00 | 0.00 | 84 | 1007.8 |
| 20260506015003 | 77 | 150 | 2.0 | 4.0 | 0.00 | 0.00 | 0.00 | 84 | 1007.1 |
| 20260506014522 | 77 | 81 | 0.0 | 2.0 | 0.00 | 0.00 | 0.00 | 83 | 1007.8 |
| 20260506014506 | 77 | 165 | 2.0 | 4.0 | 0.00 | 0.00 | 0.00 | 83 | 1007.1 |
| 20260506014010 | 77 | 165 | 0.0 | 2.0 | 0.00 | 0.00 | 0.00 | 83 | 1007.7 |
| 20260506014004 | 77 | 143 | 1.0 | 4.0 | 0.00 | 0.00 | 0.00 | 83 | 1007.1 |
| 20260506013511 | 77 | 197 | 0.0 | 2.0 | 0.00 | 0.00 | 0.00 | 83 | 1007.8 |
| 20260506013505 | 77 | 158 | 1.0 | 4.0 | 0.00 | 0.00 | 0.00 | 83 | 1007.1 |
| 20260506013024 | 77 | 121 | 0.0 | 3.0 | 0.00 | 0.00 | 0.00 | 83 | 1007.7 |
| 20260506013014 | 77 | 142 | 1.0 | 3.0 | 0.00 | 0.00 | 0.00 | 83 | 1007.1 |
| 20260506012509 | 78 | 167 | 0.0 | 3.0 | 0.00 | 0.00 | 0.00 | 82 | 1007.7 |
| 20260506012506 | 78 | 152 | 1.0 | 4.0 | 0.00 | 0.00 | 0.00 | 82 | 1007.1 |
| 20260506012008 | 78 | 156 | 2.0 | 7.0 | 0.00 | 0.00 | 0.00 | 81 | 1006.9 |
| 20260506012005 | 78 | 167 | 0.0 | 3.0 | 0.00 | 0.00 | 0.00 | 81 | 1007.7 |
| 20260506011535 | 78 | 158 | 1.0 | 7.0 | 0.00 | 0.00 | 0.00 | 81 | 1006.9 |
| 20260506011514 | 78 | 211 | 0.0 | 2.0 | 0.00 | 0.00 | 0.00 | 81 | 1007.5 |
| 20260506011010 | 79 | 123 | 2.0 | 6.0 | 0.00 | 0.00 | 0.00 | 81 | 1006.8 |
| 20260506011005 | 79 | 169 | 0.0 | 2.0 | 0.00 | 0.00 | 0.00 | 81 | 1007.6 |
| 20260506010510 | 79 | 194 | 0.0 | 2.0 | 0.00 | 0.00 | 0.00 | 81 | 1007.6 |
| 20260506010503 | 79 | 144 | 2.0 | 5.0 | 0.00 | 0.00 | 0.00 | 81 | 1006.9 |
| 20260506010026 | 79 | 194 | 0.0 | 2.0 | 0.00 | 0.00 | 0.00 | 81 | 1007.6 |
| 20260506010011 | 79 | 158 | 1.0 | 3.0 | 0.00 | 0.00 | 0.00 | 81 | 1006.8 |
| 20260506005508 | 79 | 159 | 1.0 | 3.0 | 0.00 | 0.00 | 0.00 | 80 | 1006.8 |
| 20260506005012 | 79 | 175 | 0.0 | 2.0 | 0.00 | 0.00 | 0.00 | 80 | 1007.5 |
| 20260506005007 | 79 | 111 | 1.0 | 4.0 | 0.00 | 0.00 | 0.00 | 80 | 1006.7 |
| 20260506004535 | 79 | 180 | 0.0 | 2.0 | 0.00 | 0.00 | 0.00 | 79 | 1007.4 |
| 20260506004511 | 79 | 171 | 1.0 | 4.0 | 0.00 | 0.00 | 0.00 | 79 | 1006.7 |
| 20260506004006 | 80 | 174 | 0.0 | 2.0 | 0.00 | 0.00 | 0.00 | 79 | 1007.4 |
| 20260506004003 | 80 | 159 | 1.0 | 4.0 | 0.00 | 0.00 | 0.00 | 79 | 1006.7 |
| 20260506003511 | 80 | 198 | 0.0 | 4.0 | 0.00 | 0.00 | 0.00 | 79 | 1007.3 |
| 20260506003503 | 80 | 163 | 2.0 | 8.0 | 0.00 | 0.00 | 0.00 | 79 | 1006.6 |
| 20260506003026 | 80 | 165 | 0.0 | 4.0 | 0.00 | 0.00 | 0.00 | 78 | 1007.1 |
| 20260506003006 | 80 | 157 | 2.0 | 8.0 | 0.00 | 0.00 | 0.00 | 78 | 1006.4 |
| 20260506002511 | 80 | 241 | 0.0 | 2.0 | 0.00 | 0.00 | 0.00 | 78 | 1007.1 |
| 20260506002504 | 80 | 153 | 3.0 | 8.0 | 0.00 | 0.00 | 0.00 | 78 | 1006.4 |
| 20260506002007 | 80 | 170 | 0.0 | 2.0 | 0.00 | 0.00 | 0.00 | 78 | 1007.1 |
| 20260506001522 | 81 | 132 | 0.0 | 2.0 | 0.00 | 0.00 | 0.00 | 77 | 1007.0 |
| 20260506001512 | 81 | 143 | 2.0 | 5.0 | 0.00 | 0.00 | 0.00 | 77 | 1006.3 |
| 20260506001006 | 81 | 250 | 0.0 | 2.0 | 0.00 | 0.00 | 0.00 | 77 | 1007.0 |
| 20260506001004 | 81 | 178 | 1.0 | 6.0 | 0.00 | 0.00 | 0.00 | 77 | 1006.3 |
| 20260506000508 | 81 | 207 | 0.0 | 5.0 | 0.00 | 0.00 | 0.00 | 77 | 1007.0 |
| 20260506000023 | 81 | 200 | 1.0 | 5.0 | 0.00 | 0.00 | 0.00 | 76 | 1006.9 |
| 20260506000021 | 81 | 160 | 3.0 | 6.0 | 0.00 | 0.00 | 0.00 | 76 | 1006.2 |
| 20260505235511 | 81 | 163 | 0.0 | 4.0 | 0.00 | 0.00 | 0.00 | 76 | 1007.0 |
| 20260505235502 | 81 | 171 | 2.0 | 5.0 | 0.00 | 0.00 | 0.00 | 76 | 1006.2 |
| 20260505235007 | 81 | 175 | 0.0 | 4.0 | 0.00 | 0.00 | 0.00 | 76 | 1006.9 |
| 20260505235003 | 81 | 141 | 2.0 | 5.0 | 0.00 | 0.00 | 0.00 | 76 | 1006.2 |
| 20260505234524 | 81 | 184 | 0.0 | 2.0 | 0.00 | 0.00 | 0.00 | 77 | 1006.9 |
| 20260505234522 | 81 | 166 | 1.0 | 5.0 | 0.00 | 0.00 | 0.00 | 77 | 1006.2 |
| 20260505234012 | 81 | 173 | 2.0 | 5.0 | 0.00 | 0.00 | 0.00 | 75 | 1006.2 |
| 20260505234006 | 81 | 192 | 0.0 | 4.0 | 0.00 | 0.00 | 0.00 | 75 | 1006.9 |
| 20260505233513 | 82 | 173 | 0.0 | 5.0 | 0.00 | 0.00 | 0.00 | 75 | 1006.9 |
| 20260505233504 | 82 | 145 | 2.0 | 9.0 | 0.00 | 0.00 | 0.00 | 75 | 1006.1 |
| 20260505233014 | 82 | 186 | 0.0 | 4.0 | 0.00 | 0.00 | 0.00 | 74 | 1006.9 |
| 20260505233005 | 82 | 190 | 3.0 | 9.0 | 0.00 | 0.00 | 0.00 | 74 | 1006.2 |
| 20260505232507 | 82 | 182 | 0.0 | 2.0 | 0.00 | 0.00 | 0.00 | 74 | 1006.9 |
| 20260505232505 | 82 | 162 | 2.0 | 9.0 | 0.00 | 0.00 | 0.00 | 74 | 1006.2 |
| 20260505232007 | 82 | 182 | 1.0 | 4.0 | 0.00 | 0.00 | 0.00 | 74 | 1006.8 |
| 20260505232003 | 82 | 171 | 1.0 | 9.0 | 0.00 | 0.00 | 0.00 | 74 | 1006.1 |
| 20260505231527 | 82 | 173 | 0.0 | 4.0 | 0.00 | 0.00 | 0.00 | 74 | 1006.8 |
| 20260505231512 | 82 | 150 | 2.0 | 8.0 | 0.00 | 0.00 | 0.00 | 74 | 1006.0 |
| 20260505231007 | 82 | 183 | 1.0 | 3.0 | 0.00 | 0.00 | 0.00 | 73 | 1006.8 |
| 20260505231004 | 82 | 166 | 2.0 | 8.0 | 0.00 | 0.00 | 0.00 | 73 | 1006.0 |
| 20260505230509 | 82 | 89 | 0.0 | 3.0 | 0.00 | 0.00 | 0.00 | 74 | 1006.8 |
| 20260505230506 | 82 | 168 | 3.0 | 8.0 | 0.00 | 0.00 | 0.00 | 74 | 1006.0 |
| 20260505230018 | 82 | 165 | 0.0 | 3.0 | 0.00 | 0.00 | 0.00 | 73 | 1006.8 |
| 20260505230009 | 82 | 150 | 2.0 | 8.0 | 0.00 | 0.00 | 0.00 | 73 | 1006.0 |
| 20260505225510 | 83 | 171 | 3.0 | 9.0 | 0.00 | 0.00 | 0.00 | 73 | 1006.0 |
| 20260505225506 | 83 | 171 | 1.0 | 4.0 | 0.00 | 0.00 | 0.00 | 73 | 1006.7 |
| 20260505225009 | 82 | 147 | 4.0 | 9.0 | 0.00 | 0.00 | 0.00 | 73 | 1006.1 |
| 20260505225007 | 82 | 210 | 0.0 | 5.0 | 0.00 | 0.00 | 0.00 | 73 | 1006.8 |
| 20260505224534 | 82 | 208 | 1.0 | 5.0 | 0.00 | 0.00 | 0.00 | 72 | 1006.9 |
| 20260505224508 | 82 | 132 | 5.0 | 10.0 | 0.00 | 0.00 | 0.00 | 72 | 1006.1 |
| 20260505224007 | 83 | 182 | 2.0 | 8.0 | 0.00 | 0.00 | 0.00 | 71 | 1006.9 |
| 20260505223514 | 83 | 197 | 1.0 | 8.0 | 0.00 | 0.00 | 0.00 | 72 | 1007.0 |
| 20260505223509 | 83 | 186 | 5.0 | 10.0 | 0.00 | 0.00 | 0.00 | 72 | 1006.2 |
| 20260505223038 | 83 | 220 | 1.0 | 6.0 | 0.00 | 0.00 | 0.00 | 71 | 1006.9 |
| 20260505223025 | 83 | 178 | 6.0 | 11.0 | 0.00 | 0.00 | 0.00 | 71 | 1006.2 |
| 20260505222507 | 84 | 163 | 1.0 | 6.0 | 0.00 | 0.00 | 0.00 | 70 | 1006.9 |
| 20260505222505 | 84 | 190 | 5.0 | 11.0 | 0.00 | 0.00 | 0.00 | 70 | 1006.1 |
| 20260505222009 | 84 | 216 | 1.0 | 6.0 | 0.00 | 0.00 | 0.00 | 71 | 1006.9 |
| 20260505222007 | 84 | 212 | 6.0 | 11.0 | 0.00 | 0.00 | 0.00 | 71 | 1006.1 |
| 20260505221524 | 83 | 206 | 1.0 | 6.0 | 0.00 | 0.00 | 0.00 | 72 | 1007.0 |
| 20260505221510 | 83 | 177 | 5.0 | 11.0 | 0.00 | 0.00 | 0.00 | 72 | 1006.3 |
| 20260505221012 | 83 | 198 | 1.0 | 6.0 | 0.00 | 0.00 | 0.00 | 73 | 1007.0 |
| 20260505221004 | 83 | 191 | 7.0 | 10.0 | 0.00 | 0.00 | 0.00 | 73 | 1006.3 |
| 20260505220509 | 82 | 179 | 1.0 | 3.0 | 0.00 | 0.00 | 0.00 | 74 | 1007.2 |
| 20260505220505 | 82 | 207 | 4.0 | 10.0 | 0.00 | 0.00 | 0.00 | 74 | 1006.5 |
| 20260505220033 | 82 | 227 | 1.0 | 8.0 | 0.00 | 0.00 | 0.00 | 73 | 1007.2 |
| 20260505220027 | 82 | 155 | 5.0 | 16.0 | 0.00 | 0.00 | 0.00 | 73 | 1006.5 |
| 20260505215512 | 82 | 207 | 1.0 | 8.0 | 0.00 | 0.00 | 0.00 | 73 | 1007.2 |
| 20260505215510 | 82 | 186 | 7.0 | 16.0 | 0.00 | 0.00 | 0.00 | 73 | 1006.5 |
| 20260505215009 | 83 | 246 | 1.0 | 8.0 | 0.00 | 0.00 | 0.00 | 72 | 1007.3 |
| 20260505215004 | 83 | 206 | 5.0 | 12.0 | 0.00 | 0.00 | 0.00 | 72 | 1006.6 |
| 20260505214525 | 83 | 195 | 7.0 | 12.0 | 0.00 | 0.00 | 0.00 | 71 | 1006.6 |
| 20260505214521 | 83 | 238 | 1.0 | 11.0 | 0.00 | 0.00 | 0.00 | 71 | 1007.3 |
| 20260505214010 | 83 | 120 | 4.0 | 11.0 | 0.00 | 0.00 | 0.00 | 71 | 1006.5 |
| 20260505214008 | 83 | 171 | 2.0 | 11.0 | 0.00 | 0.00 | 0.00 | 71 | 1007.2 |
| 20260505213512 | 83 | 162 | 2.0 | 5.0 | 0.00 | 0.00 | 0.00 | 71 | 1007.2 |
| 20260505213507 | 83 | 176 | 6.0 | 12.0 | 0.00 | 0.00 | 0.00 | 71 | 1006.6 |
| 20260505213038 | 84 | 248 | 1.0 | 5.0 | 0.00 | 0.00 | 0.00 | 72 | 1007.3 |
| 20260505213019 | 84 | 147 | 5.0 | 12.0 | 0.00 | 0.00 | 0.00 | 72 | 1006.6 |
| 20260505212509 | 83 | 162 | 7.0 | 14.0 | 0.00 | 0.00 | 0.00 | 71 | 1006.7 |
| 20260505212504 | 83 | 194 | 1.0 | 7.0 | 0.00 | 0.00 | 0.00 | 71 | 1007.3 |
| 20260505212014 | 83 | 170 | 9.0 | 14.0 | 0.00 | 0.00 | 0.00 | 70 | 1006.8 |
| 20260505212004 | 83 | 132 | 3.0 | 7.0 | 0.00 | 0.00 | 0.00 | 70 | 1007.5 |
| 20260505211510 | 83 | 148 | 4.0 | 14.0 | 0.00 | 0.00 | 0.00 | 72 | 1006.8 |
| 20260505211506 | 83 | 254 | 1.0 | 8.0 | 0.00 | 0.00 | 0.00 | 72 | 1007.4 |
| 20260505211007 | 84 | 132 | 1.0 | 7.0 | 0.00 | 0.00 | 0.00 | 72 | 1007.4 |
| 20260505211005 | 84 | 165 | 6.0 | 14.0 | 0.00 | 0.00 | 0.00 | 72 | 1006.8 |
| 20260505210505 | 83 | 180 | 2.0 | 7.0 | 0.00 | 0.00 | 0.00 | 73 | 1007.5 |
| 20260505210012 | 82 | 185 | 6.0 | 12.0 | 0.00 | 0.00 | 0.00 | 73 | 1007.0 |
| 20260505210010 | 82 | 194 | 1.0 | 4.0 | 0.00 | 0.00 | 0.00 | 73 | 1007.7 |
| 20260505205513 | 82 | 217 | 7.0 | 12.0 | 0.00 | 0.00 | 0.00 | 74 | 1007.1 |
| 20260505205509 | 82 | 97 | 1.0 | 4.0 | 0.00 | 0.00 | 0.00 | 74 | 1007.9 |
| 20260505205014 | 82 | 154 | 1.0 | 8.0 | 0.00 | 0.00 | 0.00 | 74 | 1008.0 |
| 20260505205007 | 82 | 232 | 6.0 | 12.0 | 0.00 | 0.00 | 0.00 | 74 | 1007.3 |
| 20260505204523 | 81 | 217 | 7.0 | 17.0 | 0.00 | 0.00 | 0.00 | 72 | 1007.5 |
| 20260505204510 | 81 | 156 | 2.0 | 8.0 | 0.00 | 0.00 | 0.00 | 72 | 1008.1 |
| 20260505204004 | 82 | 174 | 1.0 | 6.0 | 0.00 | 0.00 | 0.00 | 73 | 1008.1 |
| 20260505204002 | 82 | 120 | 4.0 | 17.0 | 0.00 | 0.00 | 0.00 | 73 | 1007.5 |
| 20260505203506 | 82 | 65 | 3.0 | 15.0 | 0.00 | 0.00 | 0.00 | 76 | 1007.6 |
| 20260505203024 | 82 | 166 | 8.0 | 15.0 | 0.00 | 0.00 | 0.00 | 74 | 1007.6 |
| 20260505203004 | 82 | 202 | 2.0 | 7.0 | 0.00 | 0.00 | 0.00 | 74 | 1008.3 |
| 20260505202508 | 82 | 188 | 4.0 | 15.0 | 0.00 | 0.00 | 0.00 | 74 | 1007.7 |
| 20260505202503 | 82 | 162 | 1.0 | 7.0 | 0.00 | 0.00 | 0.00 | 74 | 1008.3 |
| 20260505202008 | 81 | 202 | 6.0 | 11.0 | 0.00 | 0.00 | 0.00 | 75 | 1007.7 |
| 20260505202003 | 81 | 199 | 1.0 | 6.0 | 0.00 | 0.00 | 0.00 | 75 | 1008.4 |
| 20260505201522 | 81 | 170 | 4.0 | 11.0 | 0.00 | 0.00 | 0.00 | 74 | 1007.7 |
| 20260505201508 | 81 | 142 | 2.0 | 4.0 | 0.00 | 0.00 | 0.00 | 74 | 1008.4 |
| 20260505201009 | 81 | 171 | 4.0 | 11.0 | 0.00 | 0.00 | 0.00 | 74 | 1007.8 |
| 20260505201004 | 81 | 263 | 1.0 | 5.0 | 0.00 | 0.00 | 0.00 | 74 | 1008.5 |
| 20260505200510 | 81 | 163 | 2.0 | 5.0 | 0.00 | 0.00 | 0.00 | 75 | 1008.5 |
| 20260505200507 | 81 | 160 | 5.0 | 11.0 | 0.00 | 0.00 | 0.00 | 75 | 1007.8 |
| 20260505200012 | 81 | 192 | 1.0 | 5.0 | 0.00 | 0.00 | 0.00 | 76 | 1008.6 |
| 20260505195503 | 81 | 163 | 1.0 | 8.0 | 0.00 | 0.00 | 0.00 | 75 | 1008.7 |
| 20260505195007 | 82 | 193 | 8.0 | 12.0 | 0.00 | 0.00 | 0.00 | 73 | 1008.0 |
| 20260505195003 | 82 | 171 | 1.0 | 8.0 | 0.00 | 0.00 | 0.00 | 73 | 1008.8 |
| 20260505194520 | 82 | 166 | 4.0 | 20.0 | 0.00 | 0.00 | 0.00 | 76 | 1008.1 |
| 20260505194516 | 82 | 133 | 1.0 | 5.0 | 0.00 | 0.00 | 0.00 | 76 | 1008.9 |
| 20260505194014 | 82 | 135 | 2.0 | 9.0 | 0.00 | 0.00 | 0.00 | 74 | 1009.0 |
| 20260505194011 | 82 | 142 | 6.0 | 20.0 | 0.00 | 0.00 | 0.00 | 74 | 1008.2 |
| 20260505193508 | 81 | 189 | 5.0 | 15.0 | 0.00 | 0.00 | 0.00 | 78 | 1008.3 |
| 20260505193503 | 81 | 193 | 1.0 | 9.0 | 0.00 | 0.00 | 0.00 | 78 | 1009.1 |
| 20260505193034 | 81 | 169 | 1.0 | 9.0 | 0.00 | 0.00 | 0.00 | 76 | 1009.1 |
| 20260505193011 | 81 | 143 | 6.0 | 15.0 | 0.00 | 0.00 | 0.00 | 76 | 1008.3 |
| 20260505192506 | 82 | 227 | 9.0 | 16.0 | 0.00 | 0.00 | 0.00 | 74 | 1008.3 |
| 20260505192011 | 82 | 219 | 10.0 | 16.0 | 0.00 | 0.00 | 0.00 | 75 | 1008.4 |
| 20260505192003 | 82 | 242 | 2.0 | 8.0 | 0.00 | 0.00 | 0.00 | 75 | 1009.2 |
| 20260505191526 | 81 | 162 | 7.0 | 14.0 | 0.00 | 0.00 | 0.00 | 74 | 1008.5 |
| 20260505191507 | 81 | 201 | 2.0 | 5.0 | 0.00 | 0.00 | 0.00 | 74 | 1009.2 |
| 20260505191006 | 81 | 197 | 7.0 | 16.0 | 0.00 | 0.00 | 0.00 | 77 | 1008.5 |
| 20260505191003 | 81 | 248 | 1.0 | 10.0 | 0.00 | 0.00 | 0.00 | 77 | 1009.2 |
| 20260505190514 | 80 | 221 | 7.0 | 16.0 | 0.00 | 0.00 | 0.00 | 77 | 1008.5 |
| 20260505190502 | 80 | 196 | 1.0 | 10.0 | 0.00 | 0.00 | 0.00 | 77 | 1009.2 |
| 20260505190029 | 80 | 97 | 6.0 | 12.0 | 0.00 | 0.00 | 0.00 | 78 | 1008.5 |
| 20260505190016 | 80 | 145 | 1.0 | 3.0 | 0.00 | 0.00 | 0.00 | 78 | 1009.2 |
| 20260505185506 | 80 | 180 | 1.0 | 7.0 | 0.00 | 0.00 | 0.00 | 77 | 1009.2 |
| 20260505185007 | 80 | 161 | 7.0 | 11.0 | 0.00 | 0.00 | 0.00 | 77 | 1008.7 |
| 20260505185004 | 80 | 169 | 2.0 | 7.0 | 0.00 | 0.00 | 0.00 | 77 | 1009.3 |
| 20260505184514 | 80 | 183 | 6.0 | 11.0 | 0.00 | 0.00 | 0.00 | 80 | 1008.7 |
| 20260505184504 | 80 | 245 | 1.0 | 6.0 | 0.00 | 0.00 | 0.00 | 80 | 1009.4 |
| 20260505184006 | 79 | 153 | 6.0 | 12.0 | 0.00 | 0.00 | 0.00 | 81 | 1008.8 |
| 20260505184004 | 79 | 186 | 2.0 | 10.0 | 0.00 | 0.00 | 0.00 | 81 | 1009.4 |
| 20260505183507 | 78 | 172 | 6.0 | 13.0 | 0.00 | 0.00 | 0.00 | 80 | 1008.8 |
| 20260505183503 | 78 | 198 | 1.0 | 10.0 | 0.00 | 0.00 | 0.00 | 80 | 1009.4 |
| 20260505183031 | 78 | 228 | 6.0 | 13.0 | 0.00 | 0.00 | 0.00 | 81 | 1008.9 |
| 20260505183027 | 78 | 232 | 1.0 | 4.0 | 0.00 | 0.00 | 0.00 | 81 | 1009.4 |
| 20260505182506 | 78 | 165 | 7.0 | 11.0 | 0.00 | 0.00 | 0.00 | 82 | 1009.1 |
| 20260505182504 | 78 | 207 | 1.0 | 9.0 | 0.00 | 0.00 | 0.00 | 82 | 1009.6 |
| 20260505182012 | 77 | 175 | 7.0 | 12.0 | 0.00 | 0.00 | 0.00 | 80 | 1009.1 |
| 20260505182007 | 77 | 212 | 2.0 | 9.0 | 0.00 | 0.00 | 0.00 | 80 | 1009.6 |
| 20260505181521 | 77 | 194 | 1.0 | 8.0 | 0.00 | 0.00 | 0.00 | 81 | 1009.7 |
| 20260505181519 | 77 | 165 | 7.0 | 13.0 | 0.00 | 0.00 | 0.00 | 81 | 1009.2 |
| 20260505181012 | 77 | 188 | 7.0 | 13.0 | 0.00 | 0.00 | 0.00 | 82 | 1009.2 |
| 20260505181009 | 77 | 208 | 3.0 | 8.0 | 0.00 | 0.00 | 0.00 | 82 | 1009.8 |
| 20260505180514 | 77 | 192 | 7.0 | 11.0 | 0.00 | 0.00 | 0.00 | 81 | 1009.2 |
| 20260505180504 | 77 | 205 | 3.0 | 5.0 | 0.00 | 0.00 | 0.00 | 81 | 1009.8 |
| 20260505180008 | 77 | 213 | 6.0 | 12.0 | 0.00 | 0.00 | 0.00 | 81 | 1009.2 |
| 20260505175503 | 77 | 210 | 1.0 | 6.0 | 0.00 | 0.00 | 0.00 | 83 | 1009.7 |
| 20260505175003 | 76 | 172 | 2.0 | 5.0 | 0.00 | 0.00 | 0.00 | 82 | 1009.8 |
| 20260505174513 | 76 | 193 | 8.0 | 12.0 | 0.00 | 0.00 | 0.00 | 82 | 1009.3 |
| 20260505174511 | 76 | 224 | 1.0 | 8.0 | 0.00 | 0.00 | 0.00 | 82 | 1009.9 |
| 20260505174007 | 76 | 190 | 1.0 | 8.0 | 0.00 | 0.00 | 0.00 | 82 | 1010.0 |
| 20260505173503 | 76 | 219 | 7.0 | 12.0 | 0.00 | 0.00 | 0.00 | 82 | 1009.4 |
| 20260505173009 | 77 | 177 | 0.0 | 6.0 | 0.00 | 0.00 | 0.00 | 82 | 1009.9 |
| 20260505173007 | 77 | 158 | 5.0 | 12.0 | 0.00 | 0.00 | 0.00 | 82 | 1009.4 |
| 20260505172509 | 77 | 204 | 6.0 | 12.0 | 0.00 | 0.00 | 0.00 | 81 | 1009.4 |
| 20260505172507 | 77 | 236 | 1.0 | 7.0 | 0.00 | 0.00 | 0.00 | 81 | 1009.9 |
| 20260505172020 | 77 | 237 | 2.0 | 8.0 | 0.00 | 0.00 | 0.00 | 82 | 1009.9 |
| 20260505172003 | 77 | 188 | 8.0 | 13.0 | 0.00 | 0.00 | 0.00 | 82 | 1009.4 |
| 20260505171521 | 76 | 254 | 1.0 | 8.0 | 0.00 | 0.00 | 0.00 | 84 | 1009.9 |
| 20260505171503 | 76 | 163 | 8.0 | 13.0 | 0.00 | 0.00 | 0.00 | 84 | 1009.4 |